Location: Berbisdorf
(50.7638°N, 12.9442°E)
Time: 20:45:00
(UTC+00:00)

STARLINK-41 - Pass Details

Date: 07 June 2020
Orbit: 358 x 360 km, 53.0° (Epoch: 04 July)

Event Time Altitude Azimuth Distance (km) Brightness Sun altitude
Exits shadow 00:42:08 23° 242° (WSW) 827 4.1 -13.5°
Maximum altitude 00:43:51 78° 159° (SSE) 375 2.6 -13.4°
Drops below altitude 10° 00:46:51 10° 72° (ENE) 1,350 6.2 -13.2°
Sets 00:48:53 0° 71° (ENE) 2,199 7.4 -13.1°
